CW1734 Weather Reports


Display with metric or nautical units.
time (UTC)temp
F
wind
direction
speed
MPH
gust
MPH
rain 1hr
in
rain 24hr
in
rain mn
in
humidity
%
barometer
mb
20260831193903 63 287 9.0 14.0 0.00 0.03 0.02 69 1017.9
20260831193404 63 288 7.0 10.0 0.00 0.03 0.02 70 1017.0
20260831192903 64 279 6.0 9.0 0.00 0.03 0.02 70 1017.0
20260831192404 64 288 6.0 10.0 0.00 0.03 0.02 70 1017.0
20260831191904 64 280 7.0 12.0 0.00 0.03 0.02 71 1017.0
20260831190905 64 283 5.0 9.0 0.00 0.03 0.02 71 1017.0
20260831185904 65 283 6.0 13.0 0.00 0.03 0.02 70 1017.0
20260831185404 65 280 6.0 9.0 0.00 0.03 0.02 70 1017.0
20260831184904 65 278 6.0 10.0 0.00 0.03 0.02 69 1017.0
20260831183904 66 278 7.0 12.0 0.00 0.03 0.02 69 1016.8
20260831183404 66 291 5.0 8.0 0.00 0.03 0.02 69 1016.8
20260831182904 67 309 7.0 10.0 0.00 0.03 0.02 68 1016.8
20260831182404 67 298 10.0 14.0 0.00 0.03 0.02 68 1016.7
20260831181904 67 277 7.0 16.0 0.00 0.03 0.02 67 1016.7
20260831180904 68 272 6.0 12.0 0.00 0.03 0.02 66 1016.6
20260831180404 68 285 7.0 15.0 0.00 0.03 0.02 66 1016.6
20260831175903 68 275 9.0 14.0 0.00 0.03 0.02 66 1016.4
20260831175404 68 293 8.0 15.0 0.00 0.03 0.02 66 1016.4
20260831174404 69 234 5.0 15.0 0.00 0.03 0.02 65 1016.3
20260831173904 69 246 4.0 10.0 0.00 0.03 0.02 64 1016.3
20260831172904 69 242 5.0 12.0 0.00 0.03 0.02 64 1016.2
20260831172404 69 259 7.0 13.0 0.00 0.03 0.02 64 1016.0
20260831171904 69 255 5.0 10.0 0.00 0.03 0.02 64 1016.0
20260831171404 69 267 5.0 10.0 0.00 0.03 0.02 63 1016.0
20260831170404 70 233 5.0 13.0 0.00 0.03 0.02 62 1016.0
20260831165904 70 260 6.0 15.0 0.00 0.03 0.02 61 1016.0
20260831165404 70 262 8.0 15.0 0.00 0.03 0.02 61 1015.9
20260831164904 71 268 6.0 14.0 0.00 0.03 0.02 62 1015.5
20260831164405 71 273 3.0 13.0 0.00 0.03 0.02 63 1015.5
20260831163903 71 272 6.0 15.0 0.00 0.03 0.02 63 1015.5
20260831163404 71 260 5.0 12.0 0.00 0.03 0.02 63 1015.5
20260831162404 70 258 5.0 13.0 0.00 0.03 0.02 63 1015.2
20260831161404 70 235 6.0 15.0 0.00 0.03 0.02 69 1015.2
20260831160404 71 257 5.0 12.0 0.00 0.03 0.02 70 1015.2
20260831155904 71 249 5.0 10.0 0.00 0.03 0.02 69 1015.2
20260831155404 71 254 5.0 14.0 0.00 0.03 0.02 70 1015.2
20260831154904 71 241 7.0 14.0 0.00 0.03 0.02 69 1015.2
20260831154404 71 212 6.0 14.0 0.00 0.03 0.02 69 1015.2
20260831153904 71 221 5.0 12.0 0.00 0.03 0.02 68 1015.0
20260831153404 71 231 5.0 9.0 0.00 0.03 0.02 69 1015.0
20260831152903 71 236 8.0 14.0 0.00 0.03 0.02 69 1015.0
20260831152404 71 250 5.0 12.0 0.00 0.03 0.02 69 1015.0
20260831151903 70 248 6.0 14.0 0.00 0.03 0.02 70 1015.0
20260831151403 70 233 6.0 15.0 0.00 0.03 0.02 70 1014.9
20260831150905 70 225 7.0 15.0 0.00 0.03 0.02 70 1014.9
20260831150404 70 223 7.0 18.0 0.00 0.03 0.02 69 1014.9
20260831145904 71 232 6.0 14.0 0.00 0.03 0.02 69 1014.9
20260831145404 71 261 5.0 15.0 0.00 0.03 0.02 69 1014.9
20260831144904 71 225 6.0 12.0 0.00 0.03 0.02 69 1014.9
20260831144404 71 250 7.0 16.0 0.00 0.03 0.02 69 1014.6
20260831143904 71 226 7.0 17.0 0.00 0.03 0.02 69 1014.6
20260831143403 72 202 5.0 12.0 0.00 0.03 0.02 67 1014.6
20260831142905 73 235 4.0 12.0 0.00 0.03 0.02 67 1014.6
20260831142404 71 233 3.0 10.0 0.00 0.03 0.02 68 1014.6
20260831141904 70 240 5.0 10.0 0.00 0.03 0.02 66 1014.6
20260831141404 70 241 5.0 12.0 0.00 0.03 0.02 66 1014.5
20260831140904 70 264 8.0 20.0 0.00 0.03 0.02 66 1014.5
20260831140404 72 238 6.0 12.0 0.00 0.03 0.02 61 1014.5
20260831135404 74 275 6.0 18.0 0.00 0.03 0.02 59 1013.8
20260831134404 75 241 6.0 13.0 0.00 0.03 0.02 56 1013.8
20260831133904 75 256 5.0 16.0 0.00 0.03 0.02 56 1013.8
20260831133404 75 218 7.0 14.0 0.00 0.03 0.02 58 1013.8
20260831132904 75 255 6.0 15.0 0.00 0.03 0.02 59 1013.8
20260831132404 76 248 5.0 13.0 0.00 0.03 0.02 60 1013.8
20260831131904 75 226 6.0 16.0 0.00 0.03 0.02 57 1013.8
20260831131404 75 244 5.0 21.0 0.00 0.03 0.02 58 1013.9
20260831130904 75 252 6.0 13.0 0.00 0.03 0.02 59 1013.7
20260831130404 74 252 5.0 13.0 0.00 0.03 0.02 60 1013.7
20260831125904 74 261 7.0 16.0 0.00 0.03 0.02 60 1013.7
20260831125404 74 265 6.0 14.0 0.00 0.03 0.02 60 1013.7
20260831124404 74 272 9.0 15.0 0.00 0.03 0.02 61 1013.6
20260831122404 72 274 7.0 15.0 0.00 0.03 0.02 63 1013.3
20260831121904 72 273 7.0 16.0 0.00 0.03 0.02 63 1013.3
20260831121404 74 283 12.0 20.0 0.00 0.03 0.02 61 1013.1
20260831120904 73 250 5.0 14.0 0.00 0.03 0.02 61 1013.1
20260831120405 74 277 6.0 15.0 0.00 0.03 0.02 64 1013.1
20260831115404 71 322 4.0 8.0 0.00 0.03 0.02 66 1013.1
20260831114904 72 241 5.0 20.0 0.00 0.03 0.02 62 1013.1
20260831114404 73 285 9.0 15.0 0.00 0.03 0.02 66 1012.9
20260831113903 71 291 7.0 15.0 0.00 0.03 0.02 65 1012.9
20260831113404 72 269 8.0 15.0 0.00 0.03 0.02 66 1012.9
20260831112904 72 256 7.0 18.0 0.00 0.03 0.02 63 1012.6
20260831112404 73 285 9.0 16.0 0.00 0.03 0.02 65 1012.6
20260831111904 71 286 7.0 18.0 0.00 0.03 0.02 64 1012.6
20260831110404 72 301 10.0 16.0 0.00 0.03 0.02 66 1012.1
20260831105903 71 245 6.0 10.0 0.00 0.03 0.02 67 1012.1
20260831105404 71 268 6.0 16.0 0.00 0.03 0.02 67 1012.1
20260831104903 71 275 8.0 16.0 0.00 0.03 0.02 68 1012.1
20260831104404 70 274 11.0 16.0 0.00 0.03 0.02 70 1012.1
20260831103904 70 287 10.0 20.0 0.00 0.03 0.02 70 1012.1
20260831103404 69 275 7.0 20.0 0.00 0.03 0.02 72 1012.1
20260831102904 69 279 7.0 16.0 0.00 0.03 0.02 69 1011.8
20260831102404 69 266 7.0 22.0 0.00 0.03 0.02 69 1011.8
20260831101904 70 276 12.0 17.0 0.00 0.03 0.02 69 1011.8
20260831101404 70 273 10.0 17.0 0.00 0.03 0.02 69 1011.8
20260831100404 71 268 6.0 12.0 0.00 0.04 0.02 69 1011.7
20260831095904 70 285 9.0 17.0 0.00 0.04 0.02 71 1011.7
20260831095404 69 263 9.0 20.0 0.00 0.04 0.02 71 1011.7
20260831094404 69 266 8.0 15.0 0.00 0.04 0.02 72 1011.1
20260831093903 68 263 7.0 18.0 0.00 0.04 0.02 74 1011.1
20260831093403 68 262 10.0 18.0 0.00 0.04 0.02 74 1011.1
20260831092904 68 283 12.0 21.0 0.00 0.04 0.02 74 1011.1
20260831092405 68 241 5.0 15.0 0.00 0.04 0.02 75 1011.1
20260831091904 68 258 5.0 12.0 0.00 0.04 0.02 74 1011.1
20260831091404 68 267 6.0 17.0 0.00 0.04 0.02 76 1011.1
20260831090904 67 275 7.0 18.0 0.00 0.04 0.02 75 1010.4
20260831090404 67 281 10.0 17.0 0.00 0.04 0.02 76 1010.4
20260831085904 66 255 6.0 17.0 0.00 0.04 0.02 77 1010.4
20260831085404 65 275 5.0 18.0 0.00 0.04 0.02 78 1010.4
20260831084904 65 265 7.0 17.0 0.00 0.04 0.02 78 1010.4
20260831084404 65 258 5.0 17.0 0.00 0.04 0.02 78 1010.4
20260831083404 65 238 7.0 16.0 0.00 0.04 0.02 77 1010.4
20260831082904 65 243 6.0 14.0 0.00 0.04 0.02 79 1010.4
20260831082403 64 268 8.0 14.0 0.00 0.04 0.02 80 1010.4
20260831081904 63 254 8.0 15.0 0.00 0.04 0.02 80 1009.9
20260831081404 64 249 6.0 13.0 0.00 0.04 0.02 80 1009.9
20260831080904 63 263 7.0 14.0 0.00 0.04 0.02 80 1009.9
20260831080404 63 262 7.0 15.0 0.00 0.04 0.02 80 1009.9
20260831075404 63 227 3.0 10.0 0.00 0.04 0.02 81 1009.9
20260831074904 63 242 6.0 14.0 0.00 0.04 0.02 81 1009.9
20260831074403 63 252 6.0 13.0 0.00 0.04 0.02 81 1009.9
20260831073904 63 261 6.0 15.0 0.00 0.04 0.02 81 1009.2
20260831073404 63 260 9.0 15.0 0.00 0.04 0.02 81 1009.2
20260831072904 63 255 6.0 14.0 0.00 0.04 0.02 81 1009.2
20260831072404 63 259 7.0 15.0 0.00 0.04 0.02 81 1009.2
20260831071904 63 250 5.0 12.0 0.00 0.04 0.02 81 1009.2
20260831071404 63 247 5.0 14.0 0.00 0.04 0.02 81 1009.2
20260831070904 62 239 6.0 12.0 0.00 0.04 0.02 81 1009.2
20260831070404 62 254 5.0 10.0 0.00 0.04 0.02 81 1009.2
20260831065904 62 220 6.0 16.0 0.00 0.04 0.02 81 1009.2
20260831063904 62 244 6.0 14.0 0.00 0.04 0.02 80 1008.5
20260831063404 62 244 5.0 10.0 0.00 0.06 0.02 80 1008.5
20260831062904 62 241 5.0 9.0 0.00 0.06 0.02 81 1008.5
20260831062404 62 249 5.0 14.0 0.00 0.06 0.02 81 1008.5
20260831061403 62 252 5.0 12.0 0.00 0.06 0.02 82 1008.4
20260831060903 61 243 6.0 12.0 0.00 0.06 0.02 82 1008.3
20260831060404 61 246 7.0 13.0 0.00 0.06 0.02 83 1008.3
20260831055404 61 244 4.0 10.0 0.00 0.06 0.02 82 1008.0
20260831054904 61 236 6.0 13.0 0.00 0.06 0.02 82 1008.0
20260831054404 61 249 6.0 14.0 0.00 0.06 0.02 82 1008.0
20260831053403 61 264 6.0 14.0 0.00 0.06 0.02 82 1007.7
20260831052904 61 238 5.0 10.0 0.00 0.06 0.02 82 1007.7
20260831052403 61 247 6.0 13.0 0.00 0.06 0.02 81 1007.4
20260831051904 61 245 3.0 12.0 0.00 0.06 0.02 81 1007.4
20260831051404 61 237 5.0 10.0 0.00 0.06 0.02 81 1007.4
20260831050904 61 246 5.0 10.0 0.00 0.06 0.02 81 1007.4
20260831050404 61 254 7.0 12.0 0.00 0.06 0.02 81 1007.4
20260831045904 61 249 6.0 13.0 0.00 0.06 0.02 81 1007.1
20260831045404 61 255 6.0 14.0 0.00 0.06 0.02 81 1007.1
20260831044904 61 246 5.0 8.0 0.00 0.06 0.02 81 1007.1
20260831044404 61 250 5.0 12.0 0.00 0.06 0.02 81 1007.1
20260831043904 61 247 5.0 9.0 0.00 0.06 0.02 81 1007.1
20260831043404 61 248 5.0 10.0 0.00 0.06 0.02 81 1007.0
20260831042904 61 242 5.0 10.0 0.00 0.06 0.02 81 1006.9
20260831041903 61 214 5.0 12.0 0.00 0.06 0.02 81 1006.9
20260831041403 61 259 5.0 12.0 0.00 0.06 0.02 81 1006.9
20260831040403 61 240 5.0 10.0 0.00 0.06 0.02 81 1006.9
20260831035904 61 239 5.0 12.0 0.00 0.06 0.02 81 1006.9
20260831035403 61 242 4.0 16.0 0.00 0.06 0.02 81 1006.9
20260831034904 61 241 5.0 12.0 0.00 0.06 0.02 81 1006.8
20260831034405 61 246 5.0 10.0 0.00 0.06 0.02 81 1006.8
20260831033904 61 249 5.0 9.0 0.00 0.06 0.02 81 1006.8
20260831033403 61 254 3.0 10.0 0.00 0.06 0.02 81 1006.8
20260831032904 61 243 5.0 13.0 0.00 0.06 0.02 81 1006.7
20260831032403 61 247 6.0 15.0 0.00 0.06 0.02 81 1006.5
20260831031904 61 250 5.0 10.0 0.00 0.06 0.02 82 1006.5
20260831031404 61 250 6.0 10.0 0.00 0.06 0.02 82 1006.5
20260831030903 61 246 5.0 10.0 0.00 0.06 0.02 81 1006.5
20260831030403 61 253 5.0 12.0 0.00 0.06 0.02 81 1006.5
20260831025904 61 240 5.0 12.0 0.00 0.06 0.02 82 1006.5
20260831024904 61 244 4.0 15.0 0.00 0.06 0.02 82 1006.3
20260831023904 61 255 6.0 12.0 0.00 0.06 0.02 82 1006.3
20260831023404 61 244 7.0 14.0 0.00 0.06 0.02 82 1006.2
20260831022903 61 248 5.0 15.0 0.00 0.06 0.02 82 1006.2
20260831022404 61 246 6.0 17.0 0.00 0.06 0.02 82 1006.2
20260831021904 61 254 6.0 15.0 0.00 0.06 0.02 83 1006.2
20260831021404 61 254 7.0 13.0 0.00 0.06 0.02 83 1006.2
20260831020904 61 258 4.0 10.0 0.00 0.06 0.02 83 1006.2
20260831015904 61 255 7.0 14.0 0.00 0.06 0.02 84 1006.2
20260831015404 61 236 5.0 10.0 0.00 0.06 0.02 84 1006.0
20260831014904 61 262 5.0 13.0 0.00 0.06 0.02 84 1006.0
20260831014404 61 253 4.0 8.0 0.00 0.06 0.02 84 1005.9
20260831013904 62 267 7.0 15.0 0.00 0.06 0.02 84 1005.7
20260831013404 61 244 7.0 16.0 0.00 0.06 0.02 84 1005.7
20260831012904 61 253 6.0 12.0 0.00 0.06 0.02 85 1005.9
20260831012403 61 246 6.0 15.0 0.00 0.06 0.02 85 1005.9
20260831011904 61 236 6.0 13.0 0.00 0.06 0.02 85 1005.9
20260831011403 61 233 5.0 9.0 0.00 0.06 0.02 85 1005.5
20260831010904 61 262 3.0 10.0 0.00 0.06 0.02 85 1005.5
20260831010403 62 261 5.0 12.0 0.00 0.06 0.02 83 1005.5
20260831005904 63 286 7.0 15.0 0.00 0.06 0.02 84 1005.5
20260831005404 63 268 6.0 16.0 0.00 0.06 0.02 84 1005.5
20260831004904 63 236 6.0 12.0 0.00 0.06 0.02 85 1005.5
20260831004404 63 224 8.0 20.0 0.00 0.06 0.02 85 1005.4
20260831003904 63 221 9.0 20.0 0.00 0.06 0.02 86 1005.4
20260831003404 62 233 7.0 16.0 0.00 0.06 0.02 86 1005.4
20260831002904 62 227 6.0 15.0 0.01 0.06 0.02 86 1005.4
20260831002404 62 222 9.0 24.0 0.02 0.06 0.02 87 1005.4
20260831001903 62 234 8.0 15.0 0.02 0.06 0.02 87 1005.4
20260831001404 62 230 8.0 20.0 0.02 0.06 0.02 87 1005.4
20260831000904 62 233 9.0 20.0 0.02 0.06 0.02 87 1005.4
20260831000404 62 230 7.0 20.0 0.02 0.06 0.02 88 1005.4
20260830235403 63 223 9.0 20.0 0.02 0.06 0.02 88 1005.4
20260830234904 63 220 12.0 23.0 0.02 0.06 0.02 88 1005.3
20260830234404 63 227 5.0 13.0 0.03 0.06 0.02 88 1005.3
20260830233404 63 230 9.0 21.0 0.03 0.06 0.02 88 1005.4
20260830232403 63 2 0.0 0.0 0.02 0.05 0.00 87 1005.4
20260830231904 63 2 0.0 0.0 0.02 0.05 0.00 87 1005.4
20260830231404 63 2 0.0 12.0 0.02 0.05 0.00 87 1005.4
20260830230904 63 184 12.0 12.0 0.02 0.05 0.00 87 1005.4
20260830230404 63 184 12.0 16.0 0.02 0.05 0.00 86 1006.0
20260830225903 63 209 11.0 22.0 0.02 0.05 0.05 85 1006.0
20260830225404 63 214 10.0 16.0 0.02 0.05 0.05 84 1006.0
20260830224904 64 198 9.0 21.0 0.02 0.05 0.05 82 1006.0
20260830224404 65 203 14.0 26.0 0.01 0.04 0.04 81 1006.0
20260830223904 65 211 8.0 21.0 0.00 0.03 0.03 81 1006.0
20260830223404 65 221 9.0 18.0 0.00 0.03 0.03 81 1006.0
20260830222904 65 215 10.0 22.0 0.00 0.03 0.03 81 1006.0
20260830222404 65 209 10.0 17.0 0.00 0.03 0.03 81 1006.4
20260830221904 65 196 10.0 20.0 0.00 0.03 0.03 81 1006.4
20260830221404 64 218 7.0 17.0 0.00 0.03 0.03 81 1006.4
20260830220404 64 222 12.0 20.0 0.00 0.03 0.03 81 1006.4
20260830215904 64 220 7.0 20.0 0.00 0.03 0.03 81 1006.5
20260830215404 64 226 10.0 17.0 0.00 0.03 0.03 81 1006.5
20260830214904 64 211 9.0 17.0 0.00 0.03 0.03 81 1006.6
20260830213904 64 228 6.0 18.0 0.00 0.03 0.03 81 1006.6
20260830212904 64 218 9.0 18.0 0.00 0.03 0.03 81 1006.6
20260830212404 64 213 6.0 21.0 0.00 0.03 0.03 81 1006.6
20260830210904 65 215 10.0 15.0 0.00 0.03 0.03 81 1006.7
20260830210403 65 216 9.0 17.0 0.00 0.03 0.03 81 1006.7
20260830205404 64 217 8.0 17.0 0.00 0.03 0.03 81 1006.5
20260830204903 64 226 7.0 17.0 0.00 0.03 0.03 81 1006.5
20260830204404 64 226 7.0 23.0 0.00 0.03 0.03 81 1006.6
20260830203904 64 204 11.0 20.0 0.00 0.03 0.03 81 1006.6
20260830203405 64 228 6.0 15.0 0.00 0.03 0.03 82 1006.6
20260830201904 64 233 7.0 15.0 0.00 0.03 0.03 81 1006.6
20260830200404 64 222 12.0 21.0 0.00 0.03 0.03 80 1006.6
20260830195903 64 215 6.0 15.0 0.00 0.03 0.03 81 1006.6
20260830195404 64 226 7.0 16.0 0.00 0.03 0.03 81 1006.6
20260830194904 64 242 9.0 20.0 0.00 0.03 0.03 81 1006.6
20260830194404 64 212 6.0 14.0 0.00 0.03 0.03 81 1006.6